User: anonymous   Login
Location: Unspecified
(0.0000°N, 0.0000°E)
Time: 23:58:59
(UTC+00:00)
Language:

STARLINK-5237 - Orbit

View from above orbital plane
View from above orbital plane
View from above satellite
View from above satellite

Ground track
Ground track

The orbit is defined by the following mean orbital elements,

1 54196U          26145.35673193 +.00000000 +00000-0 -44812-4 0 00007
2 54196  53.2120   9.8333 0001395 120.4118 239.7012 15.08843661    07
Epoch (UTC): 25 May 2026 08:33:41
Eccentricity: 0.0001395
inclination: 53.2120°
perigee height: 539 km
apogee height: 541 km
right ascension of ascending node: 9.8333°
argument of perigee: 120.4118°
revolutions per day: 15.08843661
mean anomaly at epoch: 239.7012°

The dashed part of the orbit path shows where the satellite is in the earth's shadow,  

DLR